Regional Weather Roundup
Issued by NWS Newport/Morehead, NC

Current Version | Previous Version | Graphics & Text | Print | Product List | Glossary Off
Versions: 1 2 3 4 5 6 7 8 9 10 11 12 13 14 15 16 17 18 19 20 21 22 23 24 25 26 27 28 29 30 31 32 33 34 35 36 37 38 39 40 41 42 43 44 45 46 47 48 49 50

000
ASUS42 KMHX 271425
RWRMHX
WEATHER ROUNDUP FOR EASTERN NORTH CAROLINA
NATIONAL WEATHER SERVICE NEWPORT/MOREHEAD CITY NC
1000 AM EDT MON MAR 27 2017

NOTE: "FAIR" INDICATES FEW OR NO CLOUDS BELOW 12,000 FEET
WITH NO SIGNIFICANT WEATHER AND/OR OBSTRUCTIONS TO VISIBILITY

NCZ015>017-031-032-045>047-102-103-271500-
NORTH COAST

CITY           SKY/WX    TMP DP  RH WIND       PRES   REMARKS
EDENTON        NOT AVBL
ELIZABETH CITY SUNNY     68  55  63 SW10      30.17S
KITTY HAWK     NOT AVBL
MANTEO         SUNNY     66  54  65 SW6       30.18S

$$

NCZ045>047-081-094-103-104-271500-
CENTRAL COAST

CITY           SKY/WX    TMP DP  RH WIND       PRES   REMARKS
FRISCO         MOSUNNY   73  52  47 S6        30.18R

$$

NCZ095-097-098-100-101-271500-
SOUTHERN COAST

CITY           SKY/WX    TMP DP  RH WIND       PRES   REMARKS
BEAUFORT       SUNNY     72  57  59 W6        30.17S
CEDAR ISLAND   NOT AVBL
JACKSONVILLE   SUNNY     71  57  61 SW6       30.17R
PINEY ISLAND   CLOUDY   N/A N/A N/A W3        30.17S
WILMINGTON     SUNNY     72  54  53 SW7       30.17R


$$

NCZ011>013-027>030-043-044-078>080-089-090>093-098-271500-
COASTAL PLAIN

CITY           SKY/WX    TMP DP  RH WIND       PRES   REMARKS
AHOSKIE        NOT AVBL
CLINTON        SUNNY     67  58  72 SW5       30.17S
ELIZABETHTOWN  SUNNY     69  57  65 S3        30.16S
GOLDSBORO      PTSUNNY   67  59  75 SW6       30.15S
GREENVILLE     SUNNY     70  55  60 SW10      30.18R
HAVELOCK       MOSUNNY   72  54  53 VRB7      30.19R
KENANSVILLE    SUNNY     70  55  60 SW3       30.17S
KINSTON        SUNNY     70  57  64 SW8       30.18R
NEW BERN       SUNNY     71  56  58 SW5       30.18S
RICHLANDS      SUNNY     71  56  58 SW7       30.18R
ROCKY MOUNT    CLOUDY    65  58  78 SW7       30.16S
WASHINGTON     SUNNY     69  57  65 SW5       30.17S
WHITEVILLE     SUNNY     69  56  63 SW7       30.16S

$$

AMZ130-135-150-152-154-156-158-170-250-252-270-ANZ085-086-088-633-658-670-271500-
MARINE OBSERVATIONS

STATION/POSITION TIME  TEMP    WIND        PRES    WAVE   SWELL
                       AIR SEA DIR/SP/G            HT/PER HT/PER
                 (UTC) (F)     (DEG/KT/KT) (MB)    (FT/S) (FT/S)
CHESAPEAKE LIGHT NOT AVBL
64 E VA BEACH    1350   55 50  190/  6/  8 1021.6    4/ 8   3/ 8
DUCK             1400   66 49  200/  7/  9 1021.1
2 E DUCK         1400      52                N/A     3/ 8   2/18
OREGON INLET     1400   64 56  180/  6/  7 1021.9
13E OREGON INLT  1348      52                N/A     4/ 8   3/ 8
HATTERAS CG      1400   70 60  210/  4/  5 1021.7
DIAMOND BUOY     1350   70 75  210/  4/  6 1022.1    3/ 9   3/ 9
CAPE LOOKOUT     1400   72     270/  5/  6 1021.6
BEAUFORT LAB     1400   71 57   CALM  /  1 1021.0
30 SE NEW RVR IN 1408   67      50/  2/  4 1021.9
30 SE NEW RVR IN 1413      65                N/A     4/ 9   2/11
27 SE WRIGHTSVLE 1408   67 65  310/  2/  6 1021.1
5 SE WRIGHTSVLE  1408   62 60   60/  4/  6 1021.5
225 S CAPE HAT   1350   69 72   90/ 14/ 16 1021.4    5/ 8   5/ 8
41 SE CHARLESTON 1350   72 74  200/  6/  8 1020.7    4/11   3/11

$$




USA.gov is the U.S. government's official web portal to all federal, state and local government web resources and services.